Flag for Canada Weather past 2 weeks in Coral Harbour, Nunavut, Canada

Now
32 °F

Light snow. Low clouds.


Feels Like: 22 °F
Forecast: 21 / 33 °F
Wind: 15 mph from North

Location: Coral Harbour

Current Time: May 22, 2015 at 9:52:23 AM

Latest Report: May 22, 2015 at 9:00 AM


Visibility: 10 mi

Pressure: 29.58 "Hg

Humidity: 80%

Dew point: 27 °F

Location of Coral HarbourLocation

Historic Weather in Coral Harbour — Graph

°F

Coral Harbour temperature yesterday

Maximum temperature yesterday: 27 °F (at 12:00 PM)
Minimum temperature yesterday: 19 °F (at 1:00 AM)
Average temperature yesterday: 23 °F

Past Weeks' High & Low Weather Summary

 TemperatureHumidityPressure
High34 °F (May 13, 3:00 PM)100% (May 15, 9:00 PM)30.33 "Hg (May 15, 9:00 PM)
Low-2 °F (May 11, 4:00 AM)62% (May 11, 9:00 PM)29.35 "Hg (May 16, 2:00 AM)
Average19 °F77%29.94 "Hg
* Reported May 7 8:00 AM — May 22 8:00 AM, Coral Harbour, Weather by CustomWeather, © 2015

Note: Actual official high and low records may vary slightly from our data, if they occured in-between our weather recording intervals... More about our weather records

Advertising

Coral Harbour weather history for previous 24 hours

 ConditionsComfort  
Time TempWeatherWind HumidityBarometerVisibility
8:00 AM
Fri, May 22
32 °FLight snow. Low clouds.15 mph87%29.58 "Hg8 mi
7:00 AM30 °FLight snow. Low clouds.15 mph93%29.59 "Hg6 mi
6:00 AM30 °FLight snow. Low clouds.15 mph86%29.62 "Hg8 mi
5:00 AM30 °FLight snow. Low clouds.12 mph86%29.63 "Hg6 mi
4:00 AM30 °FLight snow. Low clouds.12 mph93%29.63 "Hg6 mi
3:00 AM30 °FLight snow. Overcast.8 mph93%29.66 "Hg1 mi
2:00 AM27 °FLight snow. Overcast.9 mph100%29.68 "Hg1 mi
1:00 AM27 °FLight snow. Ice fog.12 mph93%29.72 "Hg1 mi
12:00 AM27 °FLight snow. Ice fog.12 mph93%29.75 "Hg1 mi
11:00 PM
Thu, May 21
25 °FLight snow. Overcast.12 mph93%29.78 "Hg1 mi
10:00 PM25 °FLight snow. Overcast.16 mph93%29.81 "Hg1 mi
9:00 PM27 °FLight snow. Partly sunny.15 mph86%29.85 "Hg15 mi
8:00 PM27 °FLight snow. Partly sunny.13 mph86%29.88 "Hg15 mi
7:00 PM27 °FLight snow. Overcast.14 mph86%29.92 "Hg15 mi
6:00 PM25 °FLight snow. Overcast.14 mph93%29.95 "Hg1 mi
5:00 PM25 °FPartly sunny.14 mph86%29.97 "Hg15 mi
4:00 PM25 °FPartly sunny.13 mph80%29.99 "Hg15 mi
3:00 PM27 °FPartly sunny.15 mph74%30.00 "Hg15 mi
2:00 PM27 °FPartly sunny.16 mph74%30.02 "Hg15 mi
1:00 PM27 °FPartly sunny.8 mph74%30.03 "Hg15 mi
12:00 PM27 °FScattered clouds.6 mph64%30.04 "Hg15 mi
11:00 AM25 °FPassing clouds.6 mph69%30.06 "Hg15 mi
10:00 AM23 °FPassing clouds.5 mph74%30.08 "Hg15 mi
9:00 AM21 °FPassing clouds.9 mph80%30.10 "Hg15 mi
Weather by CustomWeather, © 2015

See weather overviewHow to use our weather pages